TimePDT,TemperatureF,Dew PointF,Humidity,Sea Level PressureIn,VisibilityMPH,Wind Direction,Wind SpeedMPH,Gust SpeedMPH,PrecipitationIn,Events,Conditions,WindDirDegrees,DateUTC
12:53 AM,57.9,55.9,93,30.11,10.0,Calm,Calm,-,N/A,,Clear,0,2013-09-07 07:53:00
1:53 AM,57.0,55.0,93,30.10,10.0,Calm,Calm,-,N/A,,Clear,0,2013-09-07 08:53:00
2:53 AM,55.0,54.0,96,30.10,9.0,Calm,Calm,-,0.01,,Partly Cloudy,0,2013-09-07 09:53:00
3:14 AM,55.4,55.4,100,30.09,10.0,Calm,Calm,-,N/A,,Scattered Clouds,0,2013-09-07 10:14:00
3:26 AM,55.4,53.6,94,30.09,10.0,Calm,Calm,-,N/A,,Mostly Cloudy,0,2013-09-07 10:26:00
3:36 AM,55.4,55.4,100,30.09,1.8,Calm,Calm,-,N/A,,Overcast,0,2013-09-07 10:36:00
3:45 AM,55.4,55.4,100,30.09,0.5,Calm,Calm,-,N/A,Fog,Fog,0,2013-09-07 10:45:00
3:53 AM,55.9,55.9,100,30.09,0.5,NNE,3.5,-,N/A,Fog,Fog,20,2013-09-07 10:53:00
4:04 AM,57.2,55.4,94,30.08,0.2,Calm,Calm,-,N/A,Fog,Fog,0,2013-09-07 11:04:00
4:13 AM,55.4,55.4,100,30.08,0.2,NE,3.5,-,N/A,Fog,Fog,40,2013-09-07 11:13:00
4:53 AM,55.9,55.9,100,30.08,0.2,Calm,Calm,-,N/A,Fog,Fog,0,2013-09-07 11:53:00
5:02 AM,55.4,55.4,100,30.08,0.2,NE,3.5,-,N/A,Fog,Fog,50,2013-09-07 12:02:00
5:22 AM,55.4,55.4,100,30.07,0.5,NNE,3.5,-,N/A,Fog,Fog,30,2013-09-07 12:22:00
5:53 AM,57.9,57.9,100,30.07,0.2,North,3.5,-,N/A,Fog,Fog,10,2013-09-07 12:53:00
6:03 AM,57.2,57.2,100,30.07,0.5,North,3.5,-,N/A,Fog,Fog,360,2013-09-07 13:03:00
6:38 AM,57.2,57.2,100,30.07,1.5,NNE,5.8,-,N/A,,Overcast,30,2013-09-07 13:38:00
6:46 AM,57.2,57.2,100,30.07,2.0,NNE,6.9,-,N/A,,Overcast,20,2013-09-07 13:46:00
6:53 AM,57.0,57.0,100,30.07,1.0,NE,5.8,-,N/A,,Overcast,40,2013-09-07 13:53:00
7:02 AM,57.2,57.2,100,30.07,3.0,NNE,4.6,-,N/A,,Overcast,30,2013-09-07 14:02:00
7:53 AM,59.0,57.9,96,30.07,9.0,ENE,3.5,-,N/A,,Overcast,60,2013-09-07 14:53:00
8:03 AM,57.2,57.2,100,30.07,10.0,NE,6.9,-,N/A,,Overcast,40,2013-09-07 15:03:00
8:53 AM,60.1,57.9,93,30.07,10.0,North,6.9,-,N/A,,Overcast,360,2013-09-07 15:53:00
9:10 AM,60.8,57.2,88,30.07,10.0,North,9.2,-,N/A,,Overcast,10,2013-09-07 16:10:00
9:37 AM,60.8,57.2,88,30.06,10.0,NNW,4.6,-,N/A,,Overcast,330,2013-09-07 16:37:00
9:44 AM,62.6,57.2,82,30.07,10.0,North,5.8,-,N/A,,Overcast,360,2013-09-07 16:44:00
9:53 AM,63.0,57.9,84,30.06,10.0,North,5.8,-,N/A,,Overcast,350,2013-09-07 16:53:00
10:40 AM,66.2,57.2,73,30.06,10.0,Variable,3.5,-,N/A,,Mostly Cloudy,0,2013-09-07 17:40:00
10:53 AM,68.0,57.9,70,30.05,10.0,Variable,4.6,-,N/A,,Mostly Cloudy,0,2013-09-07 17:53:00
11:53 AM,69.1,57.0,65,30.04,10.0,Variable,3.5,-,N/A,,Mostly Cloudy,0,2013-09-07 18:53:00
12:20 PM,71.6,57.2,60,30.03,10.0,North,5.8,-,N/A,,Scattered Clouds,360,2013-09-07 19:20:00
12:53 PM,73.0,57.9,59,30.02,10.0,North,5.8,-,N/A,,Clear,10,2013-09-07 19:53:00
1:53 PM,75.0,57.0,53,30.01,10.0,NNE,3.5,-,N/A,,Clear,30,2013-09-07 20:53:00
2:53 PM,77.0,57.0,50,29.99,10.0,North,3.5,-,N/A,,Clear,10,2013-09-07 21:53:00
3:53 PM,79.0,55.9,45,29.98,10.0,North,3.5,-,N/A,,Clear,10,2013-09-07 22:53:00
4:53 PM,80.1,57.0,45,29.96,10.0,ENE,5.8,-,N/A,,Clear,70,2013-09-07 23:53:00
5:53 PM,81.0,55.9,42,29.96,10.0,NE,6.9,-,N/A,,Clear,40,2013-09-08 00:53:00
6:53 PM,78.1,57.0,48,29.96,10.0,NE,6.9,-,N/A,,Clear,50,2013-09-08 01:53:00
7:53 PM,73.0,57.9,59,29.97,10.0,NNE,6.9,-,N/A,,Clear,20,2013-09-08 02:53:00
8:53 PM,69.1,59.0,70,29.99,10.0,Calm,Calm,-,N/A,,Clear,0,2013-09-08 03:53:00
9:53 PM,69.1,59.0,70,29.99,10.0,North,6.9,-,N/A,,Clear,350,2013-09-08 04:53:00
10:53 PM,68.0,59.0,73,30.00,10.0,North,9.2,-,N/A,,Clear,10,2013-09-08 05:53:00
11:53 PM,66.9,59.0,76,30.00,10.0,Calm,Calm,-,N/A,,Clear,0,2013-09-08 06:53:00